Location: Maccacari
(45.1333°N, 11.1333°E)
Time: 20:00:07
(UTC+00:00)

Tiros 1 despin weight - Pass Details

Date: 22 January 2021
Orbit: 593 x 642 km, 48.2° (Epoch: 26 February)

Event Time Altitude Azimuth Distance (km) Brightness Sun altitude
Rises 14:41:06 0° 237° (WSW) 2,880 ? 11.8°
Reaches altitude 10° 14:43:25 10° 235° (SW) 1,968 ? 11.5°
Maximum altitude 14:47:54 65° 153° (SSE) 668 ? 10.9°
Drops below altitude 10° 14:52:19 10° 72° (ENE) 1,946 ? 10.3°
Sets 14:54:37 0° 70° (ENE) 2,844 ? 10.0°
